Regional Weather Roundup
Issued by NWS

Home | Current Version | Previous Version | Graphics & Text | Print | Product List | Glossary On
Versions: 1 2 3 4 5 6 7 8 9 10 11 12 13 14 15 16 17 18 19 20 21 22 23 24 25 26 27 28 29 30 31 32 33 34 35 36 37 38 39 40 41 42 43 44 45 46 47 48 49 50
000
ASUS43 KIND 171759
RWRIN

WEATHER ROUNDUP FOR INDIANA
NATIONAL WEATHER SERVICE INDIANAPOLIS IN
100 PM EST WED DEC 17 2014

NOTE: "FAIR" INDICATES FEW OR NO CLOUDS BELOW 12,000 FEET WITH NO
SIGNIFICANT WEATHER AND/OR OBSTRUCTIONS TO VISIBILITY.

* - STATION DOES NOT REPORT WEATHER SUCH AS PRECIPITATION OR FOG.

+ - STATION NOT QUALITY CONTROLLED BY THE NATIONAL WEATHER SERVICE.
    USE DATA WITH CAUTION...ESPECIALLY DEWPOINT AND RELATIVE
    HUMIDITY OBSERVATIONS.

INZ001>003-010>013-019-020-171900-
NORTHWEST INDIANA

CITY           SKY/WX    TMP DP  RH WIND       PRES   REMARKS
GARY /AIRPORT/ CLOUDY    28  18  64 W12       30.25F WCI  18
MONTICELLO +   CLOUDY    25  22  88 W12       30.24S WCI  14
RENSSELAER +   CLOUDY    27  25  93 W10G17    30.24F WCI  17
VALPARAISO     NOT AVBL

$$

LMZ046-743>745-171900-
SOUTHERN LAKE MICHIGAN

STATION/POSITION TIME  TEMP WIND        PRES
                       AIR  DIR/SP/G
                 (UTC) (F)  (DEG/KT/KT) (MB)

$$

INZ004-005-014>016-021>024-171900-
NORTH CENTRAL INDIANA

CITY           SKY/WX    TMP DP  RH WIND       PRES   REMARKS
ELKHART        CLOUDY    28  19  69 W13       30.19S WCI  18
GOSHEN         CLOUDY    28  22  78 W14       30.18S WCI  17
6HR MIN TEMP:  27; 6HR MAX TEMP:  30;

SOUTH BEND     CLOUDY    28  21  75 W13       30.19F WCI  17
6HR MIN TEMP:  28; 6HR MAX TEMP:  30;


$$

INZ006>009-017-018-025>027-171900-
NORTHEAST INDIANA

CITY           SKY/WX    TMP DP  RH WIND       PRES   REMARKS
ANGOLA *+      CLOUDY    27  23  86 W8        30.13F WCI  18
FORT WAYNE     LGT SNOW  28  23  81 W17       30.18F WCI  16
6HR MIN TEMP:  27; 6HR MAX TEMP:  31; 6HR PCP: TRACE;


$$

INZ028-029-035-036-043>045-051>053-171900-
WEST CENTRAL INDIANA

CITY           SKY/WX    TMP DP  RH WIND       PRES   REMARKS
GREENCASTLE +  CLOUDY    27  21  80 W6        30.27F WCI  20
LAFAYETTE      CLOUDY    23  19  85 W8        30.26F WCI  14
6HR MIN TEMP:  23; 6HR MAX TEMP:  25;

TERRE HAUTE    CLOUDY    26  20  77 NW8       30.29F WCI  18
6HR MIN TEMP:  25; 6HR MAX TEMP:  26;


$$

INZ030>032-037>040-046>048-054>057-064-065-171900-
CENTRAL INDIANA

CITY           SKY/WX    TMP DP  RH WIND       PRES   REMARKS
ANDERSON       CLOUDY    25  23  93 W17G29    30.23F WCI  11
FRANKFORT +    CLOUDY    24  24 100 W12       30.26S WCI  13
INDIANAPOLIS   CLOUDY    25  21  85 W13       30.24F WCI  14
6HR MIN TEMP:  25; 6HR MAX TEMP:  26;

-EAGLE CREEK     N/A     25  21  85 NW10      30.24F WCI  15
6HR MIN TEMP:  24; 6HR MAX TEMP:  27; 6HR PCP: TRACE;

KOKOMO *+      CLOUDY    25  21  86 W16       30.22F WCI  12
MT COMFORT *+  CLOUDY    27  23  86 W14       30.23F WCI  15
SHELBYVILLE    CLOUDY    29  23  78 W10       30.23F WCI  20
6HR MIN TEMP:  28; 6HR MAX TEMP:  30;


$$

INZ033-034-041-042-049-050-058-059-171900-
EAST CENTRAL INDIANA

CITY           SKY/WX    TMP DP  RH WIND       PRES   REMARKS
MUNCIE         CLOUDY    26  23  88 W13       30.20F WCI  15
6HR MIN TEMP:  25; 6HR MAX TEMP:  30;


$$

INZ060-061-067>069-081>083-085>088-171900-
SOUTHWEST INDIANA

CITY           SKY/WX    TMP DP  RH WIND       PRES   REMARKS
EVANSVILLE     CLOUDY    34  25  69 NW8       30.31F WCI  27
6HR MIN TEMP:  32; 6HR MAX TEMP:  34;

HUNTINGBURG *+ PTSUNNY   34  23  64 W6        30.29F WCI  29
6HR MIN TEMP:  30; 6HR MAX TEMP:  34;


$$

INZ062-063-066-070>080-084-089>092-171900-
SOUTH CENTRAL AND SOUTHEAST INDIANA

CITY           SKY/WX    TMP DP  RH WIND       PRES   REMARKS
BLOOMINGTON    CLOUDY    27  22  81 W9        30.25F WCI  18
6HR MIN TEMP:  26; 6HR MAX TEMP:  27;


$$




USA.gov is the U.S. government's official web portal to all federal, state and local government web resources and services.